[[{"header":{"parameterUnit":"m.s-1","parameterCategory":1,"la1":30.2991,"la2":30.254,"lo1":-89.0895,"lo2":-89.0444,"dy":0.0017,"dx":0.0017,"nx":28,"ny":28,"refTime":"2026-03-05T03:00:00:Z","depth":0,"parameterNumber":2,"parameterNumberName":"U-component_of_WINDS"},"data":[0,0,0,0,0,0,0,0,0,0,0,0,0,0,0,0,0,0,0,0,0,0,0,0,0,0,0,0,0,0,0,0,0,0,0,0,0,0,0,0,0,0,0,0,0,0,0,0,0,0,0,0,0,0,0,0,0,0,-2.7814,-2.7815,0,-2.7858,-2.7858,-2.7859,-2.7844,-2.7843,-2.7842,-2.7841,-2.7887,-2.7889,-2.7891,0,0,0,0,0,0,0,0,0,0,0,0,0,-2.7721,-2.7723,-2.7814,-2.7815,-2.7816,-2.7858,-2.7858,-2.7859,-2.7844,-2.7843,-2.7842,-2.7841,-2.7886,-2.7889,-2.7891,0,0,0,0,0,0,0,0,0,0,0,0,0,-2.7763,-2.7723,-2.7814,-2.7813,-2.7814,-2.7858,-2.7858,-2.7859,-2.7845,-2.7843,-2.7842,-2.784,-2.7885,-2.7888,-2.7892,-2.794,0,0,-2.7901,-2.7903,0,0,0,0,0,0,0,0,-2.776,-2.7766,-2.7813,-2.7813,-2.7814,-2.7844,-2.7842,-2.7886,-2.7845,-2.7833,-2.7841,-2.784,-2.7874,-2.7878,-2.7889,-2.7942,-2.7944,-2.7901,-2.7903,-2.7905,-2.7906,0,0,0,0,0,0,0,-2.7757,-2.7764,-2.7832,-2.7814,-2.7814,-2.7811,-2.7816,-2.785,-2.7861,-2.7834,-2.7833,-2.7838,-2.7874,-2.7886,-2.789,-2.7944,-2.7901,-2.7904,-2.7906,-2.7907,-2.8039,-2.804,0,0,0,0,0,0,-2.7754,-2.7762,-2.783,-2.7833,-2.7783,-2.7814,-2.7819,-2.7836,-2.786,-2.7863,-2.7839,-2.7837,-2.7882,-2.7887,-2.7892,-2.7949,-2.7905,-2.7908,-2.7909,-2.8037,-2.8039,-2.8041,0,0,0,0,0,0,-2.7752,-2.776,-2.7829,-2.7797,-2.7806,-2.7817,-2.7836,-2.7837,-2.785,-2.7865,-2.7867,-2.785,-2.7881,-2.7887,-2.7928,-2.795,-2.7909,-2.7912,-2.8035,-2.8038,-2.804,-2.8064,0,0,0,0,0,0,-2.7749,-2.776,-2.7777,-2.7798,-2.7807,-2.7863,-2.7838,-2.7839,-2.7855,-2.7853,-2.7875,-2.7877,-2.788,-2.7923,-2.7931,-2.7954,-2.7914,-2.8033,-2.8036,-2.8039,-2.8061,-2.8067,-2.8072,0,0,0,0,0,-2.7746,-2.7783,-2.7778,-2.7787,-2.783,-2.7864,-2.787,-2.7872,-2.7857,-2.7875,-2.7885,-2.7877,-2.7947,-2.7927,-2.7936,-2.796,-2.8032,-2.8035,-2.8039,-2.8059,-2.8066,-2.8072,0,0,0,0,0,0,-2.7765,-2.7785,-2.7781,-2.7825,-2.7843,-2.7862,-2.7885,-2.788,-2.7903,-2.79,-2.7902,-2.7907,-2.7948,-2.7959,-2.7936,-2.8008,-2.7987,-2.7993,-2.7999,-2.8006,-2.8011,-2.8007,-2.7917,0,0,0,0,0,-2.7774,-2.78,-2.7817,-2.7854,-2.7864,-2.7873,-2.7888,-2.7888,-2.7907,-2.7915,-2.7928,-2.7947,-2.7973,-2.7991,-2.8016,-2.8064,-2.8068,-2.8085,-2.809,-2.8094,-2.8098,-2.8124,-2.8131,-2.8052,-2.8052,-2.8052,0,0,-2.7794,-2.7808,-2.7824,-2.7859,-2.7873,-2.79,-2.7879,-2.7909,-2.7929,-2.792,-2.7958,-2.7969,-2.799,-2.8034,-2.8054,-2.8044,-2.8122,-2.8099,-2.8102,-2.8104,-2.8128,-2.8136,-2.8142,-2.8055,-2.8054,-2.8054,0,0,-2.7842,-2.7856,-2.7888,-2.7903,-2.7925,-2.7931,-2.7939,-2.7959,-2.7965,-2.8004,-2.7997,-2.8022,-2.8068,-2.8083,-2.8097,-2.8154,-2.8147,-2.8162,-2.8189,-2.8214,-2.822,-2.8226,-2.8245,-2.8252,-2.8167,-2.8167,-2.8167,0,-2.7864,-2.7904,-2.7906,-2.7936,-2.7951,-2.7944,-2.7977,-2.7992,-2.8021,-2.8032,-2.802,-2.8078,-2.8092,-2.8139,-2.8153,-2.8165,-2.8174,-2.8159,-2.8219,-2.8225,-2.823,-2.8248,-2.8256,-2.8169,-2.8168,-2.8168,-2.8168,0,-2.7928,-2.7957,-2.798,-2.8008,-2.8026,-2.8058,-2.8065,-2.8084,-2.8083,-2.8091,-2.8131,-2.8148,-2.8176,-2.8188,-2.8188,-2.8236,-2.8229,-2.8218,-2.8197,-2.8239,-2.8256,-2.8263,-2.8171,-2.817,-2.817,-2.8169,0,0,-2.7988,-2.8017,-2.8026,-2.8038,-2.8062,-2.8084,-2.8116,-2.8144,-2.8159,-2.8181,-2.8207,-2.8246,-2.8237,-2.8253,-2.8255,-2.8277,-2.832,-2.8264,-2.8265,-2.8273,-2.8373,-2.8379,-2.8387,-2.8316,-2.8318,-2.8319,-2.8371,0,-2.8038,-2.8092,-2.8096,-2.8145,-2.8171,-2.8166,-2.8194,-2.8212,-2.822,-2.8244,-2.8254,-2.8281,-2.8268,-2.8277,-2.8299,-2.831,-2.834,-2.8307,-2.8341,-2.8342,-2.8333,-2.8396,-2.8403,-2.8451,-2.8378,-2.8379,-2.838,0,-2.8102,-2.8125,-2.8176,-2.8197,-2.8208,-2.8233,-2.8258,-2.8281,-2.8302,-2.8307,-2.8326,-2.8324,-2.8358,-2.8337,-2.8383,-2.836,-2.8375,-2.8382,-2.8384,-2.8386,-2.8362,-2.8398,-2.8466,-2.8473,-2.839,-2.839,-2.8389,0,-2.8139,-2.8182,-2.8219,-2.823,-2.8255,-2.8273,-2.8284,-2.8304,-2.832,-2.8343,-2.8354,-2.8381,-2.8396,-2.8417,-2.8424,-2.8408,-2.8469,-2.8449,-2.8474,-2.8473,-2.8485,-2.8484,-2.8554,-2.8497,-2.8497,-2.8497,-2.8497,0,-2.8193,-2.8225,-2.8236,-2.8258,-2.8294,-2.8298,-2.8334,-2.8344,-2.8362,-2.8387,-2.8385,-2.8408,-2.8416,-2.8441,-2.8447,-2.8484,-2.8491,-2.8496,-2.8496,-2.8495,-2.8494,-2.8503,-2.8499,-2.8499,-2.8499,-2.8498,-2.8498,0,-2.8239,-2.8248,-2.8287,-2.8308,-2.8314,-2.8339,-2.8357,-2.8379,-2.8388,-2.8419,-2.8427,-2.8441,-2.847,-2.848,-2.8515,-2.8519,-2.8562,-2.8561,-2.8554,-2.8554,-2.8578,-2.8575,-2.8655,-2.8666,-2.8603,-2.8604,-2.8604,0,-2.8272,-2.8296,-2.8319,-2.8335,-2.8347,-2.8374,-2.839,-2.8397,-2.8414,-2.8441,-2.8459,-2.8489,-2.8512,-2.856,-2.8573,-2.8601,-2.8599,-2.8626,-2.8603,-2.8601,-2.8598,-2.8596,-2.8598,-2.8629,-2.863,-2.863,-2.8631,0,-2.8329,-2.8332,-2.8356,-2.8381,-2.8401,-2.8422,-2.8442,-2.8456,-2.8465,-2.8485,-2.8515,-2.8533,-2.857,-2.8599,-2.8627,-2.864,-2.8637,-2.8638,-2.8645,-2.8642,-2.8637,-2.8639,-2.8564,-2.8636,-2.8635,-2.8635,-2.8634,-2.8634,-2.8368,-2.8389,-2.8409,-2.8436,-2.8451,-2.847,-2.8492,-2.8503,-2.8528,-2.8557,-2.856,-2.8593,-2.8614,-2.8651,-2.8666,-2.8691,-2.8684,-2.8694,-2.8697,-2.8699,-2.87,-2.8635,-2.8697,-2.8697,-2.8697,-2.8697,-2.8697,0,-2.8424,-2.8436,-2.8461,-2.8489,-2.851,-2.8506,-2.8528,-2.8546,-2.8574,-2.8594,-2.8617,-2.8652,-2.868,-2.8697,-2.8725,-2.8743,-2.8742,-2.875,-2.8747,-2.875,-2.8705,-2.8696,-2.875,-2.875,-2.875,-2.875,-2.875,-2.875,-2.8455,-2.849,-2.8496,-2.8539,-2.8552,-2.8583,-2.8596,-2.8613,-2.8629,-2.8667,-2.8691,-2.8701,-2.872,-2.875,-2.8776,-2.878,-2.879,-2.8799,-2.8802,-2.8759,-2.8754,-2.8748,-2.8739,-2.8801,-2.8801,-2.8844,-2.8845,-2.8845]},{"header":{"parameterUnit":"m.s-1","parameterCategory":1,"la1":30.2991,"la2":30.254,"lo1":-89.0895,"lo2":-89.0444,"dy":0.0017,"dx":0.0017,"nx":28,"ny":28,"refTime":"2026-03-05T03:00:00:Z","depth":0,"parameterNumber":3,"parameterNumberName":"V-component_of_WINDS"},"data":[0,0,0,0,0,0,0,0,0,0,0,0,0,0,0,0,0,0,0,0,0,0,0,0,0,0,0,0,0,0,0,0,0,0,0,0,0,0,0,0,0,0,0,0,0,0,0,0,0,0,0,0,0,0,0,0,0,0,2.3753,2.3753,0,2.3733,2.3733,2.3732,2.371,2.3709,2.3709,2.3709,2.3685,2.3685,2.3685,0,0,0,0,0,0,0,0,0,0,0,0,0,2.3772,2.3772,2.3753,2.3753,2.3753,2.3733,2.3733,2.3732,2.371,2.3709,2.3709,2.3709,2.3685,2.3685,2.3685,0,0,0,0,0,0,0,0,0,0,0,0,0,2.3759,2.3772,2.3754,2.3739,2.3738,2.3733,2.3733,2.3732,2.371,2.3709,2.3709,2.3708,2.3686,2.3685,2.3685,2.3691,0,0,2.3683,2.3683,0,0,0,0,0,0,0,0,2.376,2.3758,2.3742,2.374,2.3739,2.3723,2.3731,2.3718,2.371,2.372,2.3709,2.3708,2.3698,2.3697,2.3694,2.369,2.3689,2.3683,2.3683,2.3683,2.3682,0,0,0,0,0,0,0,2.3761,2.3759,2.3745,2.3741,2.374,2.3734,2.3731,2.3728,2.3712,2.3719,2.3718,2.3716,2.3697,2.3694,2.3693,2.3689,2.3683,2.3683,2.3682,2.3682,2.3692,2.3692,0,0,0,0,0,0,2.3764,2.376,2.3746,2.3745,2.3748,2.3734,2.3731,2.3729,2.3712,2.3709,2.3716,2.3715,2.3695,2.3694,2.3692,2.37,2.3683,2.3682,2.3682,2.3691,2.3692,2.3692,0,0,0,0,0,0,2.3765,2.3763,2.3747,2.3752,2.3749,2.3734,2.3732,2.3729,2.3726,2.371,2.3707,2.3716,2.3695,2.3693,2.3692,2.3699,2.3682,2.3681,2.3691,2.3691,2.3692,2.3716,0,0,0,0,0,0,2.3765,2.3763,2.3766,2.3752,2.3749,2.3748,2.3732,2.3729,2.3725,2.3723,2.3709,2.3706,2.3694,2.3693,2.3692,2.3698,2.3681,2.369,2.3691,2.3692,2.3714,2.3717,2.372,0,0,0,0,0,2.3766,2.3772,2.3766,2.3764,2.3752,2.3748,2.3746,2.3733,2.3726,2.3728,2.3718,2.3706,2.3699,2.3693,2.3692,2.3698,2.3689,2.3691,2.3692,2.3713,2.3717,2.372,0,0,0,0,0,0,2.3786,2.377,2.3763,2.3765,2.3758,2.3744,2.3747,2.3737,2.3731,2.373,2.3713,2.371,2.3712,2.3705,2.3699,2.3704,2.3692,2.3693,2.3709,2.3713,2.3715,2.3717,2.3681,0,0,0,0,0,2.3791,2.3789,2.3775,2.3779,2.3776,2.3762,2.376,2.3751,2.3742,2.3739,2.3729,2.3721,2.3717,2.3714,2.3709,2.3713,2.371,2.3717,2.372,2.3722,2.3723,2.3726,2.373,2.3696,2.3696,2.3696,0,0,2.38,2.3791,2.3791,2.3782,2.3776,2.3775,2.3759,2.3758,2.3757,2.3738,2.3738,2.373,2.372,2.3723,2.3723,2.3717,2.3732,2.3724,2.3726,2.3725,2.3728,2.3731,2.3734,2.3697,2.3697,2.3697,0,0,2.3817,2.381,2.3813,2.3807,2.3798,2.379,2.379,2.3778,2.3773,2.3772,2.3759,2.3757,2.375,2.3744,2.374,2.3757,2.3747,2.3756,2.377,2.3774,2.3776,2.3779,2.3786,2.3789,2.3757,2.3757,2.3757,0,2.383,2.3828,2.3815,2.3816,2.3813,2.3797,2.38,2.3795,2.3785,2.3783,2.3776,2.3768,2.376,2.3762,2.3766,2.3763,2.3764,2.3757,2.3777,2.3779,2.3781,2.3788,2.3791,2.3758,2.3758,2.3758,2.3758,0,2.3845,2.3844,2.3847,2.3839,2.3837,2.3838,2.3826,2.3825,2.3816,2.3808,2.3809,2.3799,2.3793,2.3792,2.3783,2.3793,2.379,2.378,2.3768,2.3786,2.3792,2.3795,2.376,2.376,2.3759,2.3759,0,0,2.3873,2.3859,2.3861,2.3858,2.3848,2.3847,2.3848,2.3843,2.3843,2.3837,2.3838,2.3833,2.3825,2.3821,2.3811,2.3814,2.383,2.3804,2.3804,2.381,2.3842,2.385,2.3853,2.3823,2.3824,2.3824,2.3843,0,2.3888,2.3891,2.3881,2.3886,2.3885,2.3871,2.3873,2.3867,2.386,2.3858,2.385,2.3848,2.3836,2.3834,2.3836,2.3828,2.3836,2.3826,2.3824,2.3824,2.3828,2.3856,2.3864,2.3882,2.3845,2.3846,2.3846,0,2.3907,2.3904,2.3909,2.3901,2.39,2.3902,2.3898,2.3896,2.3889,2.3884,2.3881,2.387,2.3871,2.386,2.3861,2.3855,2.3853,2.3849,2.385,2.3849,2.3837,2.3857,2.3888,2.3891,2.3849,2.3849,2.3849,0,2.3928,2.3925,2.3928,2.3926,2.3916,2.3918,2.3913,2.3906,2.3905,2.3901,2.39,2.3895,2.3893,2.389,2.388,2.3872,2.3883,2.387,2.3879,2.388,2.3882,2.3882,2.3914,2.388,2.388,2.388,2.388,0,2.3947,2.3952,2.3938,2.394,2.3945,2.3933,2.3938,2.3932,2.3926,2.3927,2.3914,2.3916,2.3901,2.39,2.3892,2.3895,2.3894,2.389,2.3888,2.3892,2.3892,2.3891,2.389,2.3881,2.3881,2.3881,2.3881,0,2.3972,2.3963,2.3966,2.3957,2.3955,2.3959,2.3951,2.3952,2.3945,2.3947,2.3946,2.3935,2.3934,2.3923,2.3919,2.3913,2.3921,2.3915,2.3923,2.3922,2.3932,2.3932,2.3965,2.3969,2.3932,2.3932,2.3933,0,2.3985,2.3988,2.398,2.3981,2.3977,2.3978,2.3977,2.3965,2.3965,2.3959,2.3961,2.396,2.3958,2.3957,2.3948,2.3945,2.3941,2.3952,2.394,2.3944,2.3942,2.3942,2.3943,2.3955,2.3955,2.3956,2.3956,0,2.4009,2.4006,2.4005,2.4003,2.4003,2.4001,2.3998,2.3999,2.3986,2.3986,2.3986,2.3985,2.3982,2.3981,2.3977,2.3972,2.3963,2.396,2.3962,2.3967,2.3972,2.397,2.3931,2.3959,2.3959,2.3959,2.3959,2.3959,2.4029,2.4032,2.4028,2.4028,2.4025,2.4023,2.4025,2.4019,2.4019,2.4016,2.401,2.4011,2.4005,2.4,2.3996,2.3997,2.3991,2.3994,2.3994,2.3996,2.3998,2.3971,2.3996,2.3996,2.3996,2.3996,2.3996,0,2.4054,2.4051,2.4052,2.4049,2.405,2.4041,2.4038,2.4039,2.4041,2.4037,2.4036,2.4036,2.4036,2.4028,2.4026,2.4028,2.4024,2.4028,2.4028,2.4028,2.4003,2.4002,2.4032,2.4032,2.4032,2.4032,2.4032,2.4032,2.4067,2.4073,2.4069,2.4073,2.4069,2.4071,2.407,2.4069,2.4066,2.4067,2.4067,2.4063,2.4057,2.4056,2.4055,2.4053,2.4053,2.4059,2.4056,2.4033,2.4029,2.4026,2.4025,2.4059,2.4059,2.408,2.4081,2.4081]}]]